Home > Weather > Mansfield > Past weeks

Flag for USA Past Weather in Mansfield, Texas, USA — Yesterday and Last 2 Weeks

Now
93 °F

Passing clouds.


Feels Like: 99 °F
Forecast: 73 / 92 °F
Wind: 16 mph from Southeast

Location: Burleson-Rendon

Current Time: Aug 24, 2016 at 4:46:06 PM

Latest Report: Aug 24, 2016 at 3:50 PM


Visibility: 10 mi

Pressure: 30.06 "Hg

Humidity: 47%

Dew Point: 70 °F

Location of MansfieldLocation

Past Weather in Mansfield — Graph

°F

Mansfield Temperature Yesterday

Maximum temperature yesterday: 93 °F (at 3:50 PM)
Minimum temperature yesterday: 77 °F (at 2:55 AM)
Average temperature yesterday: 81 °F

High & Low Weather Summary for the Past Weeks

 TemperatureHumidityPressure
High102 °F (Aug 11, 3:47 PM)100% (Aug 22, 7:48 AM)30.15 "Hg (Aug 22, 7:48 AM)
Low71 °F (Aug 15, 9:35 PM)27% (Aug 9, 4:46 PM)29.76 "Hg (Aug 12, 5:46 PM)
Average79 °F77%29.99 "Hg
* Reported Aug 9 3:46 PM — Aug 24 3:50 PM, Mansfield, Weather by CustomWeather, © 2016

Note: Actual official high and low records may vary slightly from our data, if they occured in-between our weather recording intervals... More about our weather records

Advertising

Mansfield Weather History for the Previous 24 Hours

Scroll right to see more
 ConditionsComfort  
Time TempWeatherWind HumidityBarometerVisibility
3:50 PM
Wed, Aug 24
93 °FPassing clouds.16 mph47%30.06 "Hg10 mi
2:50 PM91 °FPassing clouds.13 mph49%30.08 "Hg10 mi
1:50 PM91 °FPassing clouds.12 mph49%30.10 "Hg10 mi
12:50 PM90 °FPassing clouds.6 mph55%30.12 "Hg7 mi
11:50 AM88 °FPassing clouds.16 mph59%30.13 "Hg7 mi
10:51 AM84 °FPassing clouds.12 mph66%30.14 "Hg7 mi
9:55 AM82 °FPassing clouds.9 mph70%30.14 "Hg7 mi
8:50 AM77 °FPartly sunny.10 mph83%30.14 "Hg7 mi
7:52 AM75 °FMostly cloudy.12 mph89%30.12 "Hg7 mi
6:50 AM73 °FClear.5 mph89%30.10 "Hg7 mi
6:35 AM73 °FClear.3 mph88%30.10 "Hg10 mi
6:15 AM74 °FClear.3 mph85%30.10 "Hg10 mi
5:55 AM74 °FClear.6 mph86%30.09 "Hg10 mi
5:35 AM75 °FClear.8 mph85%30.09 "Hg10 mi
5:15 AM75 °FClear.7 mph85%30.09 "Hg7 mi
4:55 AM75 °FClear.7 mph84%30.09 "Hg7 mi
4:35 AM76 °FClear.9 mph84%30.09 "Hg7 mi
4:15 AM77 °FClear.6 mph83%30.10 "Hg7 mi
3:55 AM77 °FClear.7 mph82%30.10 "Hg7 mi
3:15 AM78 °FClear.10 mph79%30.11 "Hg7 mi
2:55 AM78 °FClear.13 mph76%30.11 "Hg10 mi
2:15 AM79 °FClear.10 mph75%30.11 "Hg7 mi
1:55 AM79 °FClear.10 mph75%30.11 "Hg7 mi
1:35 AM79 °FClear.12 mph74%30.11 "Hg7 mi
1:15 AM78 °FClear.9 mph75%30.11 "Hg7 mi
12:55 AM78 °FClear.8 mph75%30.11 "Hg7 mi
12:35 AM78 °FClear.8 mph76%30.11 "Hg7 mi
12:15 AM78 °FClear.6 mph76%30.11 "Hg7 mi
11:55 PM
Tue, Aug 23
78 °FClear.6 mph75%30.11 "Hg7 mi
11:15 PM79 °FClear.7 mph73%30.10 "Hg7 mi
10:55 PM79 °FClear.7 mph73%30.09 "Hg7 mi
10:35 PM79 °FClear.6 mph71%30.09 "Hg7 mi
10:15 PM79 °FClear.6 mph71%30.09 "Hg7 mi
9:55 PM79 °FClear.7 mph72%30.09 "Hg7 mi
9:35 PM80 °FClear.6 mph67%30.08 "Hg7 mi
9:15 PM82 °FClear.6 mph63%30.07 "Hg7 mi
8:55 PM84 °FSunny.7 mph58%30.06 "Hg7 mi
8:15 PM86 °FSunny.8 mph54%30.05 "Hg7 mi
7:55 PM87 °FSunny.9 mph52%30.04 "Hg7 mi
6:50 PM91 °FPassing clouds.10 mph46%30.04 "Hg10 mi
5:50 PM91 °FPassing clouds.16 mph46%30.05 "Hg10 mi
4:46 PM93 °FScattered clouds.14 mph47%30.06 "Hg10 mi
Weather by CustomWeather, © 2016

See weather overviewHow to use our weather pages